Weather in Buol

Indonesia     1°10′10″N   121°24′23″E
temp.,
°C
wind,
m/s
gust,
m/s
humid.,
%
clouds,
%
prec.,
mm/h
press.,
hPa
HPBL,
m
26 january, wed
wed2623:00+27w448284 1.4 1008331
02:00+26wsw338292 1.5 1007328
05:00+26sw338295 0.0 1007202
08:00+26sw3378100 0.0 1009183
11:00+28nnw3270100 0.0 1008329
14:00+29nw447245 0.1 1005494
17:00+28nw447793 0.9 1006402
20:00+27nw337981 1.4 1008313
27 january, thu
thu2723:00+27w2281100 1.9 1008177
02:00+26ssw2282100 5.6 100764
05:00+26s228498 1.8 1007133
08:00+26ssw3282100 2.9 1009230
11:00+27e2278100 1.9 1009236
14:00+29ene4472100 2.3 1006616
17:00+28ene3476100 0.6 1006480
20:00+27e448187 2.9 1008408
28 january, fri
fri2823:00+28e347988 2.2 1009615
02:00+27sse228488 2.8 1008322
05:00+26sse338790 3.9 1008198
08:00+26s228484 5.9 1010247
11:00+27e228184 0.8 1009277
14:00+28ene337480 1.3 1007501
17:00+28ne227770 1.1 1007229
20:00+27w117617 2.5 1009158
29 january, sat
sat2923:00+27sw11788 0.6 1010236
02:00+26sw3282100 2.3 1008149
05:00+26sw2281100 0.9 1008161
08:00+26ssw2279100 2.3 1011172
11:00+27ene1174100 0.1 1010340
14:00+28ne226974 0.1 1007604
17:00+28n337025 0.0 1007649
20:00+27nnw2271100 0.0 1009572
30 january, sun
sun3023:00+27w11745 0.0 1009438
02:00+26sw218179 0.1 1008305
05:00+25ssw228485 0.0 1008236
08:00+26ssw1181100 0.1 1010228
11:00+27ne117672 0.0 1009303
14:00+28nne337076 0.0 1007551
17:00+28nne3370100 0.0 1007674
20:00+27ne127119 0.0 1009648